DW4641 Weather Reports


Display with metric or nautical units.
time (UTC)temp
F
wind
direction
speed
MPH
gust
MPH
rain 1hr
in
rain 24hr
in
rain mn
in
humidity
%
barometer
mb
20170430010832 72 333 1.0 6.0 0.00 0.00 0.00 58 1016.4
20170430010316 72 344 1.0 4.0 0.00 0.00 0.00 58 1016.1
20170430005814 73 5 1.0 4.0 0.00 0.00 0.00 57 1016.0
20170430005318 73 9 2.0 3.0 0.00 0.00 0.00 56 1015.8
20170430004820 73 19 0.0 2.0 0.00 0.00 0.00 56 1015.6
20170430004324 73 19 0.0 2.0 0.00 0.00 0.00 56 1015.3
20170430003828 74 29 1.0 2.0 0.00 0.00 0.00 55 1015.1
20170430003332 74 28 0.0 4.0 0.00 0.00 0.00 55 1015.0
20170430002816 74 28 0.0 4.0 0.00 0.00 0.00 54 1014.9
20170430002319 75 355 1.0 6.0 0.00 0.00 0.00 54 1014.8
20170430001821 75 350 2.0 6.0 0.00 0.00 0.00 52 1014.6
20170430001329 75 26 1.0 5.0 0.00 0.00 0.00 53 1014.6
20170430000832 76 19 2.0 4.0 0.00 0.00 0.00 52 1014.4
20170430000315 76 286 1.0 3.0 0.00 0.00 0.00 51 1014.2
20170429235832 77 286 1.0 3.0 0.00 0.00 0.00 51 1014.1
20170429235316 77 286 0.0 2.0 0.00 0.00 0.00 51 1013.9
20170429234819 78 286 1.0 3.0 0.00 0.00 0.00 50 1013.8
20170429234326 78 286 0.0 11.0 0.00 0.00 0.00 50 1013.6
20170429233830 78 265 2.0 11.0 0.00 0.00 0.00 50 1013.4
20170429233333 78 238 1.0 8.0 0.00 0.00 0.00 50 1013.2
20170429232816 79 288 2.0 8.0 0.00 0.00 0.00 50 1013.1
20170429232317 79 277 2.0 8.0 0.00 0.00 0.00 49 1013.1
20170429231820 79 277 1.0 6.0 0.00 0.00 0.00 49 1013.0
20170429231332 79 202 3.0 9.0 0.00 0.00 0.00 48 1013.0
20170429230815 79 277 3.0 10.0 0.00 0.00 0.00 48 1013.0
20170429230318 79 294 3.0 10.0 0.00 0.00 0.00 48 1012.6
20170429225833 80 207 5.0 8.0 0.00 0.00 0.00 48 1012.9
20170429225317 80 221 3.0 11.0 0.00 0.00 0.00 47 1012.7
20170429224819 80 259 4.0 11.0 0.00 0.00 0.00 47 1012.5
20170429224327 80 283 2.0 8.0 0.00 0.00 0.00 47 1012.5
20170429223830 81 205 3.0 13.0 0.00 0.00 0.00 46 1012.4
20170429223333 81 254 5.0 14.0 0.00 0.00 0.00 46 1012.6
20170429222816 81 294 4.0 10.0 0.00 0.00 0.00 45 1012.6
20170429222318 81 211 2.0 17.0 0.00 0.00 0.00 46 1012.6
20170429221821 82 271 7.0 17.0 0.00 0.00 0.00 45 1012.5
20170429221330 82 230 3.0 10.0 0.00 0.00 0.00 45 1012.4
20170429220833 82 238 3.0 18.0 0.00 0.00 0.00 44 1012.2
20170429220316 82 240 6.0 22.0 0.00 0.00 0.00 44 1012.4
20170429215832 82 202 8.0 22.0 0.00 0.00 0.00 44 1012.5
20170429215316 83 202 6.0 14.0 0.00 0.00 0.00 44 1012.6
20170429214819 82 234 6.0 17.0 0.00 0.00 0.00 44 1012.7
20170429214325 82 219 8.0 17.0 0.00 0.00 0.00 44 1012.8
20170429213828 83 260 7.0 13.0 0.00 0.00 0.00 44 1012.9
20170429213331 83 190 5.0 11.0 0.00 0.00 0.00 45 1012.7
20170429212816 83 217 4.0 19.0 0.00 0.00 0.00 44 1012.8
20170429212317 83 278 6.0 19.0 0.00 0.00 0.00 44 1012.7
20170429211821 83 279 5.0 14.0 0.00 0.00 0.00 45 1012.6
20170429211323 83 259 5.0 14.0 0.00 0.00 0.00 45 1012.5
20170429210822 83 284 5.0 14.0 0.00 0.00 0.00 46 1012.6
20170429210325 82 240 4.0 24.0 0.00 0.00 0.00 46 1012.8
20170429205821 83 282 10.0 24.0 0.00 0.00 0.00 46 1012.7
20170429205324 83 271 5.0 15.0 0.00 0.00 0.00 46 1012.7
20170429204818 83 282 6.0 14.0 0.00 0.00 0.00 45 1012.7
20170429204325 83 212 5.0 10.0 0.00 0.00 0.00 46 1012.6
20170429203828 83 285 5.0 12.0 0.00 0.00 0.00 46 1012.5
20170429203330 83 188 6.0 12.0 0.00 0.00 0.00 46 1012.4
20170429202815 83 188 6.0 17.0 0.00 0.00 0.00 46 1012.4
20170429202317 83 270 7.0 17.0 0.00 0.00 0.00 45 1012.0
20170429201820 84 242 4.0 8.0 0.00 0.00 0.00 47 1011.9
20170429201332 84 284 3.0 9.0 0.00 0.00 0.00 46 1011.9
20170429200815 83 229 3.0 17.0 0.00 0.00 0.00 46 1012.0
20170429200318 83 46 9.0 17.0 0.00 0.00 0.00 46 1012.0
20170429195833 84 251 5.0 15.0 0.00 0.00 0.00 46 1012.0
20170429195316 84 289 4.0 15.0 0.00 0.00 0.00 46 1011.9
20170429194819 84 207 5.0 14.0 0.00 0.00 0.00 46 1011.8
20170429194324 84 231 6.0 14.0 0.00 0.00 0.00 46 1012.0
20170429193827 84 232 4.0 14.0 0.00 0.00 0.00 46 1012.0
20170429193330 84 213 5.0 16.0 0.00 0.00 0.00 46 1011.9
20170429192814 84 291 5.0 17.0 0.00 0.00 0.00 47 1011.8
20170429192316 84 296 6.0 13.0 0.00 0.00 0.00 46 1011.8
20170429191820 84 310 3.0 13.0 0.00 0.00 0.00 47 1011.9
20170429191330 84 232 3.0 14.0 0.00 0.00 0.00 48 1011.7
20170429190833 84 176 4.0 14.0 0.00 0.00 0.00 47 1011.6
20170429190316 85 315 5.0 8.0 0.00 0.00 0.00 46 1011.7
20170429185833 85 216 3.0 9.0 0.00 0.00 0.00 47 1011.7
20170429185316 85 193 3.0 14.0 0.00 0.00 0.00 47 1011.7
20170429184819 85 244 5.0 10.0 0.00 0.00 0.00 47 1011.4
20170429184324 85 304 4.0 10.0 0.00 0.00 0.00 48 1011.4
20170429183828 85 210 3.0 9.0 0.00 0.00 0.00 47 1011.3
20170429183330 85 280 4.0 7.0 0.00 0.00 0.00 47 1011.2
20170429182814 84 183 2.0 11.0 0.00 0.00 0.00 48 1011.1
20170429182318 84 201 4.0 11.0 0.00 0.00 0.00 48 1011.1
20170429181820 84 297 4.0 11.0 0.00 0.00 0.00 49 1011.2
20170429181331 83 284 3.0 11.0 0.00 0.00 0.00 50 1011.2
20170429180814 83 304 4.0 11.0 0.00 0.00 0.00 51 1011.2
20170429180317 82 254 4.0 9.0 0.00 0.00 0.00 52 1011.3
20170429175833 81 190 1.0 5.0 0.00 0.00 0.00 54 1011.2
20170429175316 80 199 1.0 6.0 0.00 0.00 0.00 57 1011.1
20170429174819 79 217 2.0 6.0 0.00 0.00 0.00 59 1011.1
20170429174327 78 200 2.0 6.0 0.00 0.00 0.00 59 1011.2
20170429173830 78 171 3.0 11.0 0.00 0.00 0.00 59 1011.2
20170429173333 78 219 5.0 11.0 0.00 0.00 0.00 60 1011.4
20170429172816 77 197 3.0 9.0 0.00 0.00 0.00 62 1011.6
20170429172318 77 234 6.0 9.0 0.00 0.00 0.00 62 1011.6
20170429171820 77 213 4.0 10.0 0.00 0.00 0.00 63 1011.5
20170429171331 77 198 4.0 10.0 0.00 0.00 0.00 66 1011.7
20170429170814 76 210 4.0 12.0 0.00 0.00 0.00 66 1011.9
20170429170318 76 194 3.0 7.0 0.00 0.00 0.00 66 1011.9
20170429165814 77 227 5.0 7.0 0.00 0.00 0.00 65 1012.0
20170429165316 78 232 3.0 12.0 0.00 0.00 0.00 63 1012.2
20170429164818 79 222 4.0 12.0 0.00 0.00 0.00 61 1012.4
20170429164323 81 176 6.0 11.0 0.00 0.00 0.00 57 1012.5
20170429163827 80 273 2.0 10.0 0.00 0.00 0.00 56 1012.3
20170429163331 80 288 5.0 10.0 0.00 0.00 0.00 55 1012.4
20170429162813 80 222 3.0 8.0 0.00 0.00 0.00 59 1012.3
20170429162317 79 221 2.0 4.0 0.00 0.00 0.00 60 1012.4
20170429161820 78 273 2.0 5.0 0.00 0.00 0.00 64 1012.3
20170429161327 76 254 3.0 5.0 0.00 0.00 0.00 71 1012.2
20170429160830 75 257 0.0 4.0 0.00 0.00 0.00 72 1012.0
20170429160314 74 257 0.0 4.0 0.00 0.00 0.00 74 1011.9
20170429155831 73 204 2.0 5.0 0.00 0.00 0.00 76 1012.4
20170429155315 73 211 2.0 6.0 0.00 0.00 0.00 77 1012.7
20170429154818 72 195 2.0 8.0 0.00 0.00 0.00 77 1013.0
20170429154325 72 194 4.0 8.0 0.00 0.00 0.00 77 1013.4
20170429153827 71 223 3.0 10.0 0.00 0.00 0.00 79 1013.3
20170429153330 71 184 3.0 12.0 0.00 0.00 0.00 78 1013.5
20170429152814 72 167 6.0 12.0 0.00 0.00 0.00 77 1013.8
20170429152318 72 194 5.0 11.0 0.00 0.00 0.00 76 1013.9
20170429151821 72 221 4.0 11.0 0.00 0.00 0.00 78 1014.1
20170429151332 72 190 5.0 11.0 0.00 0.00 0.00 77 1014.1
20170429150832 72 219 5.0 12.0 0.00 0.00 0.00 77 1014.2
20170429150316 72 188 6.0 11.0 0.00 0.00 0.00 76 1014.2
20170429145813 72 193 6.0 12.0 0.00 0.00 0.00 76 1014.5
20170429145316 72 213 5.0 12.0 0.00 0.00 0.00 76 1014.6
20170429144819 71 190 4.0 9.0 0.00 0.00 0.00 77 1014.8
20170429144327 71 203 4.0 10.0 0.00 0.00 0.00 76 1014.9
20170429143828 70 186 5.0 10.0 0.00 0.00 0.00 76 1014.9
20170429143331 70 196 3.0 10.0 0.00 0.00 0.00 78 1014.8
20170429142814 69 224 5.0 10.0 0.00 0.00 0.00 78 1014.7
20170429142318 69 221 4.0 9.0 0.00 0.00 0.00 78 1014.9
20170429141820 68 246 4.0 9.0 0.00 0.00 0.00 79 1014.8
20170429141329 68 231 3.0 10.0 0.00 0.00 0.00 79 1014.8
20170429140832 67 203 3.0 12.0 0.00 0.00 0.00 79 1014.9
20170429140314 66 221 6.0 13.0 0.00 0.00 0.00 78 1015.1
20170429135831 66 198 3.0 8.0 0.00 0.00 0.00 80 1015.1
20170429135315 65 180 5.0 8.0 0.00 0.00 0.00 80 1014.9
20170429134818 65 222 2.0 8.0 0.00 0.00 0.00 82 1014.8
20170429134324 64 212 3.0 10.0 0.00 0.00 0.00 82 1015.0
20170429133827 65 189 3.0 10.0 0.00 0.00 0.00 80 1015.0
20170429133329 65 236 3.0 8.0 0.00 0.00 0.00 80 1014.9
20170429132813 65 224 3.0 8.0 0.00 0.00 0.00 79 1014.8
20170429132317 65 198 3.0 6.0 0.00 0.00 0.00 79 1014.6
20170429131820 66 182 3.0 6.0 0.00 0.00 0.00 79 1014.5
20170429131328 65 213 2.0 5.0 0.00 0.00 0.00 78 1014.4
20170429130830 65 200 1.0 3.0 0.00 0.00 0.00 77 1014.2
20170429130333 65 200 1.0 3.0 0.00 0.00 0.00 77 1014.2
20170429125831 65 200 0.0 2.0 0.00 0.00 0.00 76 1014.0
20170429125315 65 200 1.0 2.0 0.00 0.00 0.00 77 1013.9
20170429124819 65 200 0.0 2.0 0.00 0.00 0.00 80 1013.8
20170429124320 65 200 1.0 2.0 0.00 0.00 0.00 81 1013.8
20170429123824 65 200 0.0 1.0 0.00 0.00 0.00 81 1013.8
20170429123327 64 200 0.0 0.0 0.00 0.00 0.00 81 1013.6
20170429122831 64 200 0.0 0.0 0.00 0.00 0.00 81 1013.5
20170429122314 64 200 0.0 2.0 0.00 0.00 0.00 82 1013.5
20170429121818 63 200 0.0 2.0 0.00 0.00 0.00 82 1013.5
20170429121329 63 200 0.0 0.0 0.00 0.00 0.00 82 1013.5
20170429120832 63 200 0.0 0.0 0.00 0.00 0.00 82 1013.5
20170429120316 62 200 0.0 0.0 0.00 0.00 0.00 82 1013.4
20170429115813 62 200 0.0 1.0 0.00 0.00 0.00 83 1013.6
20170429115316 61 200 0.0 2.0 0.00 0.00 0.00 82 1013.6
20170429114818 61 200 0.0 1.0 0.00 0.00 0.00 84 1013.6
20170429114322 60 200 0.0 1.0 0.00 0.00 0.00 84 1013.8
20170429113825 60 200 0.0 1.0 0.00 0.00 0.00 83 1014.0
20170429113328 60 200 0.0 3.0 0.00 0.00 0.00 84 1013.9
20170429112813 60 200 1.0 3.0 0.00 0.00 0.00 84 1014.0
20170429112316 60 200 0.0 2.0 0.00 0.00 0.00 85 1013.9
20170429111819 60 200 1.0 2.0 0.00 0.00 0.00 88 1014.2
20170429111326 60 200 0.0 0.0 0.00 0.00 0.00 88 1014.1
20170429110830 60 200 0.0 0.0 0.00 0.00 0.00 90 1014.3
20170429110313 60 200 0.0 0.0 0.00 0.00 0.00 91 1014.3
20170429105831 60 200 0.0 0.0 0.00 0.00 0.00 91 1014.4
20170429105315 59 200 0.0 0.0 0.00 0.00 0.00 91 1014.5
20170429104818 59 200 0.0 0.0 0.00 0.00 0.00 91 1014.4
20170429104323 59 200 0.0 1.0 0.00 0.00 0.00 90 1014.2
20170429103827 59 200 0.0 2.0 0.00 0.00 0.00 90 1014.3
20170429103330 59 200 0.0 2.0 0.00 0.00 0.00 90 1014.2
20170429102813 59 200 0.0 1.0 0.00 0.00 0.00 90 1014.1
20170429102317 59 200 0.0 0.0 0.00 0.00 0.00 90 1014.0
20170429101820 59 200 0.0 0.0 0.00 0.00 0.00 89 1014.1
20170429101313 59 200 0.0 0.0 0.00 0.00 0.00 89 1014.3
20170429100816 59 200 0.0 0.0 0.00 0.00 0.00 89 1014.2
20170429100319 59 200 0.0 0.0 0.00 0.00 0.00 88 1014.0
20170429095836 59 200 0.0 0.0 0.00 0.00 0.00 88 1014.0
20170429095315 59 200 0.0 2.0 0.00 0.00 0.00 87 1014.0
20170429094818 59 200 0.0 2.0 0.00 0.00 0.00 87 1013.9
20170429094323 59 200 0.0 1.0 0.00 0.00 0.00 86 1013.4
20170429093827 60 200 0.0 1.0 0.00 0.00 0.00 86 1013.3
20170429093329 60 200 0.0 1.0 0.00 0.00 0.00 85 1013.2
20170429092832 60 200 0.0 1.0 0.00 0.00 0.00 83 1013.3
20170429092315 60 200 0.0 1.0 0.00 0.00 0.00 83 1013.6
20170429091819 60 200 0.0 1.0 0.00 0.00 0.00 83 1013.6
20170429091329 60 200 0.0 1.0 0.00 0.00 0.00 84 1013.9
20170429090813 60 200 0.0 1.0 0.00 0.00 0.00 86 1014.0
20170429090316 60 200 0.0 0.0 0.00 0.00 0.00 85 1014.1
20170429085832 60 200 0.0 1.0 0.00 0.00 0.00 86 1014.3
20170429085315 60 200 0.0 1.0 0.00 0.00 0.00 85 1014.5
20170429084818 60 200 0.0 3.0 0.00 0.00 0.00 85 1014.7
20170429084324 60 200 0.0 2.0 0.00 0.00 0.00 85 1014.9
20170429083827 60 200 0.0 1.0 0.00 0.00 0.00 86 1014.9
20170429083330 60 200 0.0 0.0 0.00 0.00 0.00 86 1015.0
20170429082813 60 200 0.0 0.0 0.00 0.00 0.00 85 1015.0
20170429082316 60 200 0.0 0.0 0.00 0.00 0.00 84 1015.1
20170429081819 60 200 0.0 0.0 0.00 0.00 0.00 85 1015.1
20170429081332 60 200 0.0 1.0 0.00 0.00 0.00 86 1014.9
20170429080815 60 200 0.0 1.0 0.00 0.00 0.00 86 1015.1
20170429080317 60 200 0.0 0.0 0.00 0.00 0.00 86 1015.0
20170429075815 60 200 0.0 0.0 0.00 0.00 0.00 86 1015.1
20170429075318 60 200 0.0 0.0 0.00 0.00 0.00 86 1015.2
20170429074818 60 200 0.0 1.0 0.00 0.00 0.00 85 1015.2
20170429074321 60 200 0.0 2.0 0.00 0.00 0.00 85 1015.2
20170429073824 60 200 0.0 2.0 0.00 0.00 0.00 85 1015.2
20170429073330 60 200 0.0 0.0 0.00 0.00 0.00 84 1014.9
20170429072831 60 200 0.0 0.0 0.00 0.00 0.00 84 1015.0
20170429072315 60 200 0.0 0.0 0.00 0.00 0.00 84 1014.7
20170429071819 60 200 0.0 0.0 0.00 0.00 0.00 83 1014.7
20170429071327 60 200 0.0 0.0 0.00 0.00 0.00 83 1014.8
20170429070830 60 200 0.0 0.0 0.00 0.00 0.00 82 1015.0
20170429070313 60 200 0.0 0.0 0.00 0.00 0.00 82 1015.4
20170429065831 60 200 0.0 0.0 0.00 0.00 0.00 82 1015.5
20170429065314 60 200 0.0 1.0 0.00 0.00 0.00 82 1015.6
20170429064818 60 200 0.0 1.0 0.00 0.00 0.00 81 1015.5
20170429064321 60 200 0.0 0.0 0.00 0.00 0.00 81 1015.5
20170429063825 60 200 0.0 0.0 0.00 0.00 0.00 81 1015.4
20170429063328 60 200 0.0 0.0 0.00 0.00 0.00 80 1015.5
20170429062832 60 200 0.0 0.0 0.00 0.00 0.00 79 1015.4
20170429062315 60 200 0.0 1.0 0.00 0.00 0.00 80 1015.5
20170429061819 60 200 0.0 1.0 0.00 0.00 0.00 79 1015.4
20170429061329 60 200 0.0 0.0 0.00 0.00 0.00 79 1015.4
20170429060812 60 200 0.0 2.0 0.00 0.00 0.00 79 1015.4
20170429060315 60 200 0.0 3.0 0.00 0.00 0.00 79 1015.5
20170429055832 60 200 0.0 3.0 0.00 0.00 0.00 79 1015.6
20170429055315 60 200 0.0 3.0 0.00 0.00 0.00 81 1015.6
20170429054818 60 200 1.0 4.0 0.00 0.00 0.00 81 1015.6
20170429054318 60 200 2.0 4.0 0.00 0.00 0.00 82 1015.4
20170429053822 60 200 0.0 2.0 0.00 0.00 0.00 84 1015.4
20170429053326 60 200 0.0 0.0 0.00 0.00 0.00 84 1015.3
20170429052830 60 200 0.0 0.0 0.00 0.00 0.00 84 1015.4
20170429052314 60 200 0.0 0.0 0.00 0.00 0.00 83 1015.4
20170429051818 60 200 0.0 1.0 0.00 0.00 0.00 83 1015.6
20170429051326 60 200 0.0 1.0 0.00 0.00 0.00 82 1015.8
20170429050828 61 200 0.0 1.0 0.00 0.00 0.00 82 1015.9
20170429050332 61 200 0.0 1.0 0.00 0.00 0.00 83 1015.9
20170429045830 61 200 0.0 2.0 0.00 0.00 0.00 84 1016.0
20170429045314 61 200 0.0 2.0 0.00 0.00 0.00 85 1016.0
20170429044817 61 200 0.0 0.0 0.00 0.00 0.00 84 1015.9
20170429044319 61 200 0.0 0.0 0.00 0.00 0.00 84 1015.9
20170429043823 61 200 0.0 0.0 0.00 0.00 0.00 84 1015.9
20170429043326 61 200 0.0 0.0 0.00 0.00 0.00 84 1016.0
20170429042831 61 200 0.0 2.0 0.00 0.00 0.00 84 1016.0
20170429042315 60 200 0.0 2.0 0.00 0.00 0.00 84 1016.1
20170429041818 60 200 0.0 0.0 0.00 0.00 0.00 84 1015.9
20170429041329 60 200 0.0 0.0 0.00 0.00 0.00 85 1015.6
20170429040831 60 200 0.0 2.0 0.00 0.00 0.00 85 1015.5
20170429040315 60 200 0.0 2.0 0.00 0.00 0.00 84 1015.6
20170429035852 60 200 0.0 0.0 0.00 0.00 0.00 83 1015.5
20170429035315 61 200 0.0 0.0 0.00 0.00 0.00 83 1015.4
20170429034818 61 200 0.0 0.0 0.00 0.00 0.00 83 1015.4
20170429034325 61 200 0.0 0.0 0.00 0.00 0.00 82 1015.3
20170429033829 61 200 0.0 0.0 0.00 0.00 0.00 81 1015.3
20170429033332 61 200 0.0 0.0 0.00 0.00 0.00 81 1015.4
20170429032814 62 200 0.0 1.0 0.00 0.00 0.00 81 1015.3
20170429032317 62 200 0.0 1.0 0.00 0.00 0.00 80 1015.4
20170429031819 62 200 0.0 1.0 0.00 0.00 0.00 79 1015.4
20170429031332 62 200 0.0 1.0 0.00 0.00 0.00 79 1015.5
20170429030815 62 200 0.0 0.0 0.00 0.00 0.00 79 1015.5
20170429030318 62 200 0.0 0.0 0.00 0.00 0.00 78 1015.4
20170429025814 63 200 0.0 1.0 0.00 0.00 0.00 77 1015.3
20170429025315 63 200 0.0 1.0 0.00 0.00 0.00 77 1015.4
20170429024817 63 200 0.0 0.0 0.00 0.00 0.00 76 1015.4
20170429024329 63 200 0.0 0.0 0.00 0.00 0.00 76 1015.4
20170429023813 64 200 0.0 0.0 0.00 0.00 0.00 75 1015.4
20170429023323 64 200 0.0 0.0 0.00 0.00 0.00 75 1015.4
20170429022822 64 200 0.0 1.0 0.00 0.00 0.00 74 1015.6
20170429022323 64 200 0.0 1.0 0.00 0.00 0.00 74 1015.8
20170429021330 64 200 0.0 1.0 0.00 0.00 0.00 73 1015.8
20170429020813 64 200 0.0 2.0 0.00 0.00 0.00 73 1015.7
20170429020316 65 200 1.0 2.0 0.00 0.00 0.00 73 1015.9
20170429015812 65 200 0.0 1.0 0.00 0.00 0.00 73 1015.9
20170429015315 65 200 0.0 1.0 0.00 0.00 0.00 72 1015.9
20170429014818 65 200 0.0 1.0 0.00 0.00 0.00 72 1015.8
20170429014326 65 200 0.0 3.0 0.00 0.00 0.00 71 1015.6
20170429013829 65 200 1.0 3.0 0.00 0.00 0.00 71 1015.5
20170429013331 65 200 0.0 1.0 0.00 0.00 0.00 72 1015.4
20170429012816 65 200 0.0 2.0 0.00 0.00 0.00 72 1015.5
20170429012320 65 200 0.0 3.0 0.00 0.00 0.00 71 1015.4
20170429011821 65 200 1.0 3.0 0.00 0.00 0.00 71 1015.5
20170429011328 66 200 1.0 2.0 0.00 0.00 0.00 71 1015.4